Content
SEND FEEDBACK

Daily
Averages
Monthly
Summary
Guinea

BASSENIAIA, GUINEA


Home > Africa > Guinea
Elevation: 85 feet     Latitude: 09 34N     Longitude: 013 37W

WEATHER
 
SELECT A DAY
Number of Records: 67,847;   Date Range: 7/1/96 - 7/23/14
 
SHARE

PRINT THIS DATA

[ ← Previous Day ]
WEATHER ALMANAC - JANUARY 31, 2013
[ Next Day → ]
[ °C ]   °F
Weather ElementAverageHighLow
Temperature80.7 °F86 °F (12:00 pm)75.2 °F (7:00 am)
Dewpoint75.3 °F77 °F (5:00 am)73.4 °F (7:00 am)
Humidity84 %95 % (3:00 am)66 % (12:00 pm)
Barometer29.88 in29.95 in (10:00 am)29.80 in (5:00 pm)
Wind Speed6.1 mph11.5 mph (1:00 pm)
Weather ElementAverage
Visibility2.7 mi
Wind DirectionSSE (158.9 °)

Weather ElementTotal
Precipitation---
Cooling Degree Days15.6 (Base 65)
Growing Degree Days30.6 (Base 50)
Averaged from 20 records on January 31, 2013
WEATHER CONDITIONS BREAKOUT
WIND DIRECTION BREAKOUT
WEATHER BY HOUR - JANUARY 31, 2013
[ °C ]   °F
Local TimeTemperatureDewpointHumidityBarometerVisibilityWind DirectionWind SpeedGust SpeedPrecipitationEventsConditions
3:00 AM77.0 °F76.0 °F95 %29.87 in2.0 miWest (270°)2.3 mphMist
3:00 AM77.0 °F75.2 °F94 %29.86 in1.9 miVariable2.3 mphScattered Clouds
4:00 AM77.0 °F75.2 °F94 %29.86 in1.9 miVariable2.3 mphScattered Clouds
5:00 AM78.8 °F77.0 °F94 %29.86 in1.9 miCalmScattered Clouds
6:00 AM77.0 °F75.2 °F94 %29.86 in1.6 miVariable2.3 mphMist
7:00 AM75.2 °F73.4 °F94 %29.89 in1.6 miENE (70°)6.9 mphMist
8:00 AM77.0 °F75.2 °F94 %29.92 in0.7 miENE (70°)6.9 mphScattered Clouds
9:00 AM78.0 °F75.0 °F87 %29.93 in1.0 mi°6.9 mphMist
9:00 AM78.8 °F75.2 °F89 %29.92 in0.9 miENE (70°)6.9 mphScattered Clouds
10:00 AM82.4 °F75.2 °F79 %29.95 in1.6 miEast (90°)4.6 mphMostly Cloudy
11:00 AM84.2 °F75.2 °F74 %29.92 in3.1 miSSE (150°)4.6 mphHaze
12:00 PM86.0 °F73.4 °F66 %29.92 in5.0 miSouth (180°)6.9 mphPartly Cloudy
1:00 PM86.0 °F73.4 °F66 %29.89 in6.2 miSSW (210°)11.5 mphPartly Cloudy
2:00 PM86.0 °F75.2 °F70 %29.89 in6.2 miSSW (210°)11.5 mphScattered Clouds
5:00 PM86.0 °F75.2 °F70 %29.80 inSW (230°)9.2 mphClear
6:00 PM84.2 °F75.2 °F74 %29.83 inWest (260°)6.9 mphClear
8:00 PM80.6 °F75.2 °F84 %29.86 in3.1 miWest (280°)9.2 mphHaze
9:00 PM81.0 °F77.0 °F83 %29.86 in3.0 miNW (310°)6.9 mphHaze
9:00 PM80.6 °F77.0 °F89 %29.86 in3.1 miNW (310°)6.9 mphHaze
10:00 PM80.6 °F77.0 °F89 %29.89 in3.1 miNW (310°)6.9 mphHaze
Hourly data recorded from GUCY, located miles away from Basseniaia, Guinea







STORIES FROM OUR PARTNERS